Home > Time Zones > World Clock > Weather > Spain > Cadiz > Past weeks

Flag Weather past 2 weeks in Cadiz, Cádiz, Spain

Now
55 °F

Sprinkles. Passing clouds.


Feels Like: 53 °F
Forecast: 53 / 61 °F
Wind: 10 mph from East

Location: Rota Airport

Current Time: Nov 29, 2014 at 8:49:31 AM

Latest Report: Nov 29, 2014 at 8:00 AM


Visibility: N/A

Pressure: 29.27 "Hg

Humidity: 88%

Dew point: 52 °F

Location of CadizLocation

Historic Weather in Cadiz — Graph

°F

Cadiz temperature yesterday

Maximum temperature yesterday: 63 °F (at 12:00 PM)
Minimum temperature yesterday: 55 °F (at 7:00 AM)
Average temperature yesterday: 59 °F

Past Weeks' High & Low Weather Summary

 TemperatureHumidityPressure
High75 °F (Nov 22, 3:00 PM)100% (Nov 14, 7:00 AM)30.12 "Hg (Nov 14, 7:00 AM)
Low45 °F (Nov 18, 7:00 AM)41% (Nov 22, 4:00 PM)29.00 "Hg (Nov 28, 3:00 AM)
Average61 °F80%29.81 "Hg
* Reported Nov 14 7:00 AM — Nov 29 7:00 AM, Cadiz, Weather by CustomWeather, © 2014

Note: Actual official high and low records may vary slightly from our data, if they occured in-between our weather recording intervals... More about our weather records

Advertising

Cadiz weather history for previous 24 hours

 ConditionsComfort  
Time TempWeatherWind HumidityBarometerVisibility
7:00 AM
Nov 29
54 °FPassing clouds.1 mph94%29.24 "HgN/A
6:00 AM54 °FRain showers. Passing clouds.8 mph94%29.24 "Hg5 mi
5:00 AM54 °FPassing clouds.7 mph88%29.21 "HgN/A
4:00 AM55 °FPassing clouds.12 mph82%29.21 "HgN/A
3:00 AM55 °FPassing clouds.7 mph82%29.18 "HgN/A
2:00 AM55 °FPassing clouds.9 mph88%29.18 "HgN/A
1:00 AM55 °FPassing clouds.9 mph88%29.18 "HgN/A
12:00 AM57 °FPassing clouds.6 mph88%29.18 "Hg6 mi
11:45 PM
Nov 28
57 °FThunderstorms. Passing clouds.7 mph82%29.18 "Hg6 mi
11:00 PM57 °FThunderstorms. Partly cloudy.6 mph82%29.18 "Hg4 mi
10:00 PM55 °FThunderstorms. Mostly cloudy.10 mph88%29.15 "Hg6 mi
9:00 PM57 °FThunderstorms. Partly cloudy.10 mph77%29.15 "Hg2 mi
8:00 PM59 °FPassing clouds.14 mph82%29.15 "HgN/A
7:00 PM61 °FPassing clouds.5 mph72%29.12 "HgN/A
6:00 PM61 °FPassing clouds.6 mph63%29.12 "HgN/A
5:00 PM63 °FPassing clouds.10 mph59%29.12 "HgN/A
4:00 PM63 °FScattered clouds.12 mph64%29.09 "HgN/A
3:00 PM63 °FPassing clouds.10 mph68%29.09 "HgN/A
2:00 PM61 °FPassing clouds.7 mph63%29.09 "HgN/A
1:00 PM59 °FRain. Scattered clouds.8 mph77%29.12 "HgN/A
12:00 PM63 °FScattered clouds.No wind64%29.12 "HgN/A
11:00 AM57 °FScattered clouds.9 mph88%29.12 "HgN/A
10:00 AM61 °FScattered clouds.3 mph77%29.09 "HgN/A
9:00 AM55 °FPassing clouds.No wind94%29.06 "HgN/A
8:00 AM55 °FPassing clouds.2 mph94%29.03 "HgN/A
Weather by CustomWeather, © 2014

See weather overviewHow to use our weather pages